Location: Abraham Lincoln Continuation High School
(33.9711°N, 117.3662°W)
Time: 10:29:53
(UTC+00:00)

X-37B - Pass Details

Date: 19 January 2021
Orbit: 383 x 391 km, 45.0° (Epoch: 27 February)

Event Time Altitude Azimuth Distance (km) Brightness Sun altitude
Rises 01:27:06 0° 222° (SW) 2,257 5.8 -4.7°
Reaches altitude 10° 01:29:13 10° 216° (SW) 1,407 4.4 -5.1°
Maximum altitude 01:32:15 44° 142° (SE) 548 1.2 -5.7°
Drops below altitude 10° 01:35:19 10° 69° (ENE) 1,418 2.7 -6.3°
Enters shadow 01:35:39 - 68° (ENE) 1,550 2.9 -6.4°
